Weather History for Hurghada, Egypt

Change the Weather History Date:

Tuesday, April 9, 2013

  Actual Average Record
Temperature  
Mean Temperature 74 °F -  
Max Temperature 82 °F 83 °F 90 °F (2014)
Min Temperature 66 °F 66 °F 59 °F (2004)
Cooling Degree Days 9    
Growing Degree Days 24 (Base 50)    
Moisture  
Dew Point 41 °F    
Average Humidity 29    
Maximum Humidity 43    
Minimum Humidity 10    
Precipitation  
Precipitation 0.00 in - - ()
Sea Level Pressure  
Sea Level Pressure 29.94 in    
Wind  
Wind Speed 19 mph ()    
Max Wind Speed 31 mph    
Max Gust Speed -    
Visibility 3.2 miles    
Events      
Averages and records for this station are not official NWS values.
T = Trace of Precipitation, MM = Missing Value Source: Averaged Metar Reports

Daily Weather History Graph

Daily Weather History Graph

Search for Another Location

Airport:

Trip Planner

Search our weather history database for the weather conditions in past years. The results will help you decide how hot, cold, wet, or windy it might be!

Date:

Astronomy

Apr. 09, 2013 Rise Set
Actual Time 5:26 AM EET 6:06 PM EET
Civil Twilight 5:03 AM EET 6:29 PM EET
Nautical Twilight 4:35 AM EET 6:57 PM EET
Astronomical Twilight 4:07 AM EET 7:25 PM EET
Moon 4:34 AM EET (4/9) 5:22 PM EET (4/9)
Length of Visible Light 13h 26m
Length of Day
12h 39m
Waning Crescent, 1% of the Moon is Illuminated
Apr 9
Waning Crescent
Apr 10
New
Apr 18
First Quarter
Apr 25
Full
May 2
Last Quarter

Hourly Weather History & Observations

Time (EET) Temp. Dew Point Humidity Pressure Visibility Wind Dir Wind Speed Gust Speed Precip Events Conditions
12:00 AM 75.2 °F 42.8 °F 31% 29.89 in 3.1 mi North 23.0 mph - N/A   Sand
1:00 AM 75.2 °F 39.2 °F 27% 29.92 in 3.1 mi NNW 24.2 mph - N/A   Sand
2:00 AM 73 °F 38 °F 18% 29.91 in 3 mi North 21.9 mph - -   Blowing Sand
2:00 AM 73.4 °F 39.2 °F 29% 29.89 in 3.1 mi North 21.9 mph - N/A   Sand
3:00 AM 69.8 °F 39.2 °F 33% 29.92 in 3.1 mi NW 16.1 mph - N/A   Sand
4:00 AM 68.0 °F 41.0 °F 37% 29.92 in 3.7 mi WNW 15.0 mph - N/A   Unknown
5:00 AM 66.2 °F 42.8 °F 43% 29.92 in 3.7 mi WNW 20.7 mph - N/A   Unknown
6:00 AM 66.2 °F 42.8 °F 43% 29.95 in 3.7 mi NW 19.6 mph - N/A   Unknown
7:00 AM 69.8 °F 42.8 °F 38% 29.98 in 3.7 mi NW 21.9 mph - N/A   Unknown
8:00 AM 70 °F 44 °F 28% 30.00 in 3 mi NNW 23.0 mph - -   Blowing Sand
8:00 AM 69.8 °F 44.6 °F 40% 29.98 in 3.1 mi NNW 23.0 mph - N/A   Sand
9:00 AM 75.2 °F 42.8 °F 31% 30.01 in 3.1 mi NNW 20.7 mph - N/A   Sand
10:00 AM 77.0 °F 42.8 °F 29% 29.98 in 3.1 mi NNW 20.7 mph - N/A   Sand
11:00 AM 78.8 °F 41.0 °F 26% 29.98 in 3.7 mi North 23.0 mph - N/A   Unknown
12:00 PM 80.6 °F 42.8 °F 26% 29.95 in 2.5 mi North 31.1 mph - N/A   Sand
1:00 PM 80.6 °F 44.6 °F 28% 29.95 in 2.5 mi North 28.8 mph - N/A   Sand
2:00 PM 82 °F 35 °F 10% 29.94 in 2 mi NNW 28.8 mph - -   Blowing Sand
2:00 PM 82.4 °F 35.6 °F 19% 29.92 in 2.5 mi NNW 28.8 mph - N/A   Sand
3:00 PM 80.6 °F 28.4 °F 15% 29.92 in 2.5 mi North 25.3 mph - N/A   Sand
4:00 PM 80.6 °F 35.6 °F 20% 29.89 in 3.7 mi North 26.5 mph - N/A   Unknown
5:00 PM 80.6 °F 44.6 °F 28% 29.89 in - North 23.0 mph - N/A   Clear
6:00 PM 77.0 °F 44.6 °F 32% 29.92 in - North 20.7 mph - N/A   Clear
7:00 PM 75.2 °F 44.6 °F 34% 29.92 in - North 13.8 mph - N/A   Clear
8:00 PM 72 °F 38 °F 18% 29.96 in 6 mi NNW 8.1 mph - -  
8:00 PM 71.6 °F 37.4 °F 29% 29.95 in - NNW 8.1 mph - N/A   Clear
10:00 PM 69.8 °F 42.8 °F 38% 29.95 in - WNW 17.3 mph - N/A   Clear
11:00 PM 69.8 °F 42.8 °F 38% 29.95 in - WNW 18.4 mph - N/A   Clear